Вернуться в каталог

QIANFAN-150

АктивенСвязьPO
NORAD 69109·PAYLOAD·🇨🇳 China

Запущен May 17, 2026 с Wenchang Space Launch Site

Loading…

Ближайшие Пролёты (ближайшие 24 часа)

TLE

СвежийSource: Space-Track

Эпоха: Sep 14, 2026, 12:59 UTC

1 69109U 26108F   26257.54159473  .00000098  00000-0  13394-3 0  9992
2 69109  89.0190  13.0938 0002259 109.0946 251.0450 13.51023552 16512

Отслеживайте QIANFAN-150 в реальном времени с AllMySat

Download on the App Store